< < Back
Terminal Aerodrome Forecast


Current Version              Previous Versions:   1  2  3  4  5  6  7  8  9  

Terminal Aerodrome Forecast

307
FTUS42 KGSP 241732
TAFAND
TAF
KAND 241732Z 2418/2518 16003KT P6SM SCT170
     FM242000 22004KT P6SM SCT170
     FM250000 00000KT P6SM FEW210
     FM250800 00000KT P6SM SKC=

Latest METAR

077
SAUS70 KWBC 251900 RRG
MTRAND
METAR KAND 251856Z AUTO 20004KT 10SM CLR 22/05 A3000 RMK AO2 SLP153
T02220050


USA.gov is the U.S. government's official web portal to all federal, state and local government web resources and services.